Data for 08/03/2018

Time Sea-Level Adjusted Pressure Absolute Pressure Temperature Relative Humidity Dew Point   
(mb) (inHg) (mb) (inHg) (C) (F) (%) (C) (F)
00:05 1016 30 846 24.98 17.9 64.3 50 7.5 45.6
00:10 1016 30 846 24.98 17.7 63.9 51 7.5 45.5
00:15 1016 30 846 24.98 17.6 63.6 51 7.6 45.6
00:20 1016 30 846 24.98 17.4 63.4 52 7.7 45.9
00:25 1016 30 846 24.98 17.3 63.2 52 7.6 45.6
00:30 1016 30 846 24.98 17.4 63.4 52 7.7 45.8
00:35 1016 30 846 24.98 17.3 63.1 53 7.7 45.8
00:40 1017 30.03 846 24.98 17.3 63.2 52 7.6 45.6
00:45 1017 30.03 846 24.98 17.5 63.4 52 7.7 45.8
00:50 1017 30.03 846 24.98 17.4 63.3 53 7.7 45.8
00:55 1017 30.03 846 24.98 17.2 62.9 54 7.9 46.3
01:00 1017 30.03 846 24.98 16.9 62.5 54 7.8 46
01:05 1017 30.03 846 24.98 16.9 62.4 56 8 46.5
01:10 1017 30.03 846 24.98 16.6 61.8 56 8 46.3
01:15 1017 30.03 846 24.98 16.5 61.7 56 7.9 46.2
01:20 1017 30.03 846 24.98 16.4 61.6 57 7.9 46.2
01:25 1017 30.03 846 24.98 16.3 61.3 57 7.8 46
01:30 1017 30.03 846 24.98 16.2 61.2 55 7.2 45
01:35 1017 30.03 846 24.98 16.2 61.1 54 6.9 44.3
01:40 1017 30.03 846 24.98 16.1 60.9 54 6.8 44.3
01:45 1017 30.03 846 24.98 15.4 59.7 55 6.4 43.6
01:50 1017 30.03 846 24.98 15.3 59.5 53 5.9 42.7
01:55 1017 30.03 846 24.98 15.4 59.6 55 6.3 43.4
02:00 1017 30.03 846 24.98 15.2 59.4 54 6.2 43.1
02:05 1017 30.03 846 24.98 15.3 59.5 55 6.3 43.4
02:10 1017 30.03 846 24.98 15.4 59.6 53 6 42.8
02:15 1017 30.03 846 24.98 15.3 59.5 55 6.3 43.3
02:20 1017 30.03 846 24.98 14.9 58.8 56 6.2 43.2
02:25 1017 30.03 846 24.98 14.7 58.5 56 6.2 43.1
02:30 1017 30.03 846 24.98 14.4 58 58 6.3 43.4
02:35 1017 30.03 846 24.98 14.2 57.6 59 6.3 43.4
02:40 1017 30.03 846 24.98 14.2 57.6 57 5.9 42.7
02:45 1017 30.03 846 24.98 14.3 57.8 57 5.9 42.7
02:50 1017 30.03 847 25.01 14.5 58 57 6.1 43
02:55 1017 30.03 847 25.01 14.5 58.1 57 6.1 42.9
03:00 1017 30.03 847 25.01 14.6 58.2 58 6.3 43.4
03:05 1017 30.03 847 25.01 14.5 58 59 6.6 44
03:10 1017 30.03 847 25.01 14.4 58 58 6.4 43.5
03:15 1017 30.03 847 25.01 14.7 58.4 58 6.6 44
03:20 1017 30.03 847 25.01 14.8 58.7 57 6.5 43.6
03:25 1017 30.03 847 25.01 14.9 58.8 57 6.6 43.9
03:30 1018 30.06 847 25.01 14.7 58.5 59 6.9 44.4
03:35 1018 30.06 847 25.01 14.7 58.4 55 5.8 42.4
03:40 1018 30.06 847 25.01 15.3 59.5 53 5.9 42.7
03:45 1018 30.06 847 25.01 15.2 59.4 56 6.4 43.6
03:50 1018 30.06 847 25.01 14.7 58.4 58 6.4 43.6
03:55 1018 30.06 847 25.01 14.4 58 57 6.1 43
04:00 1018 30.06 847 25.01 14.3 57.8 59 6.4 43.5
04:05 1018 30.06 847 25.01 14.3 57.7 57 5.9 42.6
04:10 1018 30.06 847 25.01 14.6 58.3 56 6.1 43
04:15 1018 30.06 847 25.01 14.8 58.6 56 6 42.9
04:20 1018 30.06 847 25.01 14.9 58.8 57 6.6 43.8
04:25 1018 30.06 847 25.01 14.6 58.2 57 6.2 43.1
04:30 1018 30.06 847 25.01 14.4 58 58 6.5 43.6
04:35 1018 30.06 847 25.01 14.4 57.9 58 6.2 43.2
04:40 1018 30.06 847 25.01 14.3 57.7 61 6.9 44.3
04:45 1018 30.06 847 25.01 14 57.3 61 6.8 44.2
04:50 1018 30.06 847 25.01 13.8 56.8 63 6.9 44.4
04:55 1018 30.06 847 25.01 13.8 56.8 62 6.7 44
05:00 1018 30.06 847 25.01 13.9 56.9 62 6.9 44.4
05:05 1018 30.06 847 25.01 13.7 56.7 64 7 44.6
05:10 1018 30.06 847 25.01 13.7 56.7 63 6.8 44.2
05:15 1018 30.06 847 25.01 13.9 57.1 62 6.9 44.4
05:20 1018 30.06 847 25.01 13.9 57 62 6.9 44.5
05:25 1018 30.06 847 25.01 13.9 56.9 63 6.9 44.4
05:30 1018 30.06 847 25.01 13.7 56.6 63 6.9 44.5
05:35 1018 30.06 847 25.01 13.6 56.4 64 6.9 44.3
05:40 1018 30.06 847 25.01 13.4 56.2 64 6.9 44.4
05:45 1018 30.06 847 25.01 13.4 56 64 6.7 44.1
05:50 1018 30.06 847 25.01 13.6 56.5 62 6.5 43.7
05:55 1018 30.06 847 25.01 14.2 57.5 60 6.6 44
06:00 1018 30.06 847 25.01 14 57.3 60 6.5 43.7
06:05 1018 30.06 847 25.01 13.8 56.9 60 6.2 43.2
06:10 1018 30.06 847 25.01 13.8 56.8 60 6.2 43.1
06:15 1018 30.06 847 25.01 14.2 57.5 58 6.1 43
06:20 1018 30.06 847 25.01 14.3 57.7 58 6.3 43.3
06:25 1018 30.06 847 25.01 14.3 57.7 60 6.6 43.9
06:30 1018 30.06 847 25.01 13.5 56.3 64 6.8 44.3
06:35 1018 30.06 847 25.01 13.1 55.5 64 6.5 43.7
06:40 1018 30.06 847 25.01 12.8 55.1 64 6.3 43.3
06:45 1018 30.06 847 25.01 12.8 55.1 64 6.2 43.1
06:50 1018 30.06 847 25.01 13 55.5 62 6 42.7
06:55 1018 30.06 847 25.01 13.2 55.8 61 5.9 42.7
07:00 1018 30.06 847 25.01 13.3 56 61 6.1 43
07:05 1018 30.06 847 25.01 13.3 55.9 62 6.2 43.1
07:10 1018 30.06 847 25.01 13.5 56.3 61 6.1 42.9
07:15 1018 30.06 848 25.04 13.8 56.9 58 5.8 42.4
07:20 1018 30.06 848 25.04 14.1 57.3 56 5.4 41.8
07:25 1018 30.06 848 25.04 14.4 57.9 55 5.5 41.9
07:30 1018 30.06 848 25.04 14.6 58.2 56 5.9 42.6
07:35 1018 30.06 848 25.04 14.6 58.3 57 6.2 43.2
07:40 1018 30.06 848 25.04 14.8 58.6 57 6.5 43.8
07:45 1018 30.06 848 25.04 15.2 59.3 54 6.1 42.9
07:50 1018 30.06 848 25.04 15.3 59.5 55 6.3 43.4
07:55 1018 30.06 848 25.04 15.3 59.5 55 6.5 43.7
08:00 1018 30.06 848 25.04 15.3 59.6 55 6.4 43.6
08:05 1018 30.06 848 25.04 15.4 59.7 53 6.1 43
08:10 1018 30.06 847 25.01 15.7 60.2 55 6.7 44
08:15 1018 30.06 847 25.01 15.7 60.2 54 6.6 43.8
08:20 1018 30.06 847 25.01 15.9 60.6 55 7 44.5
08:25 1018 30.06 847 25.01 16 60.7 56 7.2 45
08:30 1018 30.06 847 25.01 16 60.9 55 7.2 44.9
08:35 1018 30.06 847 25.01 16.2 61.2 56 7.4 45.4
08:40 1018 30.06 847 25.01 16.5 61.7 57 8 46.4
08:45 1018 30.06 847 25.01 16.9 62.3 56 8.2 46.7
08:50 1018 30.06 847 25.01 17.3 63.1 54 7.8 46.1
08:55 1018 30.06 847 25.01 17.7 63.8 53 8 46.4
09:00 1018 30.06 847 25.01 17.9 64.3 49 7.3 45.2
09:05 1018 30.06 847 25.01 18.5 65.2 48 7.4 45.3
09:10 1018 30.06 847 25.01 19.1 66.3 46 7.4 45.3
09:15 1018 30.06 847 25.01 19.3 66.7 48 8.1 46.6
09:20 1018 30.06 847 25.01 19.5 67.2 46 7.8 46
09:25 1018 30.06 847 25.01 20.1 68.2 45 8 46.4
09:30 1018 30.06 847 25.01 20.4 68.7 43 7.6 45.7
09:35 1018 30.06 847 25.01 20.6 69 41 6.9 44.5
09:40 1018 30.06 847 25.01 21.1 69.9 41 7.3 45.1
09:45 1018 30.06 847 25.01 21.2 70.1 37 6 42.9
09:50 1018 30.06 847 25.01 21.6 70.8 38 6.9 44.3
09:55 1018 30.06 847 25.01 21.7 71.1 36 6.1 43
10:00 1017 30.03 847 25.01 22.2 72 36 6.6 43.9
10:05 1017 30.03 847 25.01 22 71.7 38 7.2 44.9
10:10 1017 30.03 847 25.01 22.6 72.6 34 6 42.8
10:15 1017 30.03 847 25.01 23 73.5 33 6.3 43.3
10:20 1017 30.03 846 24.98 23.6 74.4 34 6.9 44.3
10:25 1017 30.03 846 24.98 23.5 74.3 33 6.3 43.4
10:30 1017 30.03 846 24.98 23.8 74.8 32 6.1 43
10:35 1017 30.03 846 24.98 24.1 75.4 31 6.3 43.4
10:40 1017 30.03 846 24.98 24.5 76.1 31 6.6 43.8
10:45 1017 30.03 846 24.98 24.4 75.9 31 6.4 43.5
10:50 1017 30.03 846 24.98 24.5 76.1 31 6.7 44.1
10:55 1017 30.03 846 24.98 23.8 74.8 33 7 44.5
11:00 1017 30.03 846 24.98 23.5 74.2 33 6.3 43.4
11:05 1017 30.03 846 24.98 24.4 75.8 30 5.8 42.5
11:10 1016 30 846 24.98 24.8 76.7 32 7 44.7
11:15 1016 30 846 24.98 24.5 76.1 33 7.3 45.2
11:20 1016 30 846 24.98 24.6 76.3 33 7.6 45.7
11:25 1016 30 846 24.98 24.1 75.4 35 8.1 46.5
11:30 1016 30 846 24.98 24.4 76 34 8 46.3
11:35 1016 30 846 24.98 24.5 76.1 35 8.4 47
11:40 1016 30 846 24.98 24.8 76.6 35 8.6 47.5
11:45 1016 30 846 24.98 24.6 76.3 36 8.7 47.6
11:50 1016 30 846 24.98 24.8 76.6 34 8.2 46.8
11:55 1016 30 846 24.98 24.7 76.4 36 8.8 47.8
12:00 1016 30 846 24.98 24.5 76.2 35 8.3 46.9
12:05 1016 30 846 24.98 24.6 76.3 36 8.9 48.1
12:10 1016 30 846 24.98 23.8 74.8 38 8.7 47.7
12:15 1016 30 846 24.98 24.5 76.1 35 8.3 47
12:20 1016 30 846 24.98 25.1 77.2 33 7.8 46.1
12:25 1016 30 845 24.95 25.3 77.6 33 8.1 46.5
12:30 1016 30 845 24.95 25.4 77.8 33 8.1 46.5
12:35 1016 30 845 24.95 24.9 76.8 33 7.7 45.8
12:40 1016 30 845 24.95 24.5 76.2 33 7.5 45.4
12:45 1016 30 845 24.95 24.8 76.6 32 7.4 45.3
12:50 1016 30 845 24.95 25.1 77.2 33 7.8 46.1
12:55 1016 30 845 24.95 24.9 76.8 31 6.9 44.5
13:00 1016 30 845 24.95 25.3 77.5 31 7.1 44.8
13:05 1016 30 845 24.95 25.4 77.7 30 6.9 44.4
13:10 1016 30 845 24.95 25.6 78.1 29 6.6 44
13:15 1016 30 845 24.95 26.1 79 28 6.6 43.8
13:20 1016 30 845 24.95 26 78.9 29 6.8 44.2
13:25 1015 29.97 845 24.95 25.3 77.6 29 6.5 43.6
13:30 1015 29.97 844 24.92 25.4 77.7 29 6.1 43.1
13:35 1015 29.97 844 24.92 25.1 77.2 30 6.6 43.8
13:40 1015 29.97 844 24.92 24.7 76.5 29 5.7 42.3
13:45 1015 29.97 844 24.92 23.9 75 29 5.2 41.4
13:50 1015 29.97 844 24.92 23.7 74.6 29 4.7 40.4
13:55 1015 29.97 845 24.95 23.8 74.8 29 4.9 40.8
14:00 1016 30 845 24.95 24 75.1 28 4.5 40.2
14:05 1016 30 845 24.95 23.7 74.6 32 6.3 43.4
14:10 1016 30 845 24.95 23.2 73.8 32 6 42.9
14:15 1016 30 845 24.95 22.9 73.2 35 7 44.6
14:20 1016 30 845 24.95 22.6 72.7 36 6.9 44.4
14:25 1016 30 845 24.95 22.6 72.7 36 6.8 44.3
14:30 1015 29.97 845 24.95 22.6 72.7 37 7.5 45.5
14:35 1015 29.97 845 24.95 22.4 72.4 39 8.1 46.6
14:40 1016 30 845 24.95 22.3 72.2 41 8.8 47.8
14:45 1015 29.97 845 24.95 21.9 71.5 44 9.4 49
14:50 1015 29.97 845 24.95 21.5 70.6 42 8.3 46.9
14:55 1015 29.97 845 24.95 21.2 70.1 38 6.6 44
15:00 1015 29.97 845 24.95 21.3 70.3 43 8.5 47.2
15:05 1015 29.97 845 24.95 20.9 69.7 41 7.3 45.2
15:10 1015 29.97 845 24.95 20.8 69.5 40 7 44.7
15:15 1015 29.97 845 24.95 20.8 69.4 40 6.9 44.4
15:20 1015 29.97 845 24.95 20.5 68.8 40 6.5 43.8
15:25 1015 29.97 845 24.95 20.6 69.1 40 6.6 43.9
15:30 1015 29.97 845 24.95 20.6 69.2 43 7.9 46.3
15:35 1015 29.97 845 24.95 20.4 68.6 46 8.5 47.3
15:40 1016 30 845 24.95 20.6 69 45 8.4 47.1
15:45 1016 30 845 24.95 21.7 71 42 8.3 47
15:50 1016 30 845 24.95 22.7 72.9 38 7.8 46
15:55 1016 30 845 24.95 23.7 74.7 35 7.5 45.6
16:00 1015 29.97 845 24.95 24 75.1 37 8.4 47.1
16:05 1015 29.97 844 24.92 23 73.5 39 8.5 47.3
16:10 1015 29.97 845 24.95 22.7 72.8 39 8 46.4
16:15 1015 29.97 844 24.92 22.6 72.6 39 8.1 46.6
16:20 1015 29.97 844 24.92 22.6 72.6 39 8 46.3
16:25 1015 29.97 844 24.92 22.9 73.3 37 7.5 45.5
16:30 1015 29.97 844 24.92 23 73.4 35 6.9 44.5
16:35 1015 29.97 844 24.92 23.3 73.9 34 6.6 43.8
16:40 1015 29.97 844 24.92 23.6 74.4 33 6.5 43.8
16:45 1015 29.97 844 24.92 24 75.1 29 5.3 41.5
16:50 1015 29.97 844 24.92 24.6 76.2 27 4.5 40.2
16:55 1015 29.97 844 24.92 24.8 76.7 29 5.7 42.3
17:00 1015 29.97 844 24.92 24.8 76.7 27 4.6 40.3
17:05 1015 29.97 844 24.92 25 77 26 4.2 39.6
17:10 1015 29.97 844 24.92 25.4 77.7 23 2.8 37
17:15 1015 29.97 844 24.92 25.8 78.4 24 4 39.3
17:20 1015 29.97 844 24.92 25.2 77.4 28 5.5 41.9
17:25 1015 29.97 844 24.92 25.5 77.9 29 6.4 43.5
17:30 1015 29.97 844 24.92 25.5 77.9 26 5.1 41.2
17:35 1015 29.97 844 24.92 24.8 76.6 30 6.1 43
17:40 1015 29.97 844 24.92 24.9 76.7 30 6.2 43.2
17:45 1015 29.97 844 24.92 25.4 77.7 29 6.4 43.4
17:50 1015 29.97 844 24.92 25.8 78.4 27 5.5 41.9
17:55 1015 29.97 844 24.92 25.9 78.7 23 3.6 38.4
18:00 1015 29.97 844 24.92 26.2 79.1 23 3.7 38.6
18:05 1015 29.97 844 24.92 26.3 79.3 24 4.1 39.3
18:10 1015 29.97 844 24.92 26.5 79.6 22 3.4 38.1
18:15 1015 29.97 844 24.92 26.4 79.5 22 3.3 37.9
18:20 1015 29.97 844 24.92 26.5 79.7 21 2.7 36.8
18:25 1015 29.97 844 24.92 26.8 80.3 22 3.4 38.1
18:30 1015 29.97 844 24.92 27.2 81 22 3.8 38.9
18:35 1015 29.97 844 24.92 26.3 79.3 23 3.6 38.5
18:40 1015 29.97 845 24.95 26.3 79.3 25 4.8 40.6
18:45 1015 29.97 845 24.95 26.2 79.2 23 3.9 39
18:50 1015 29.97 845 24.95 25.6 78.1 24 3.9 39
18:55 1015 29.97 844 24.92 25.5 77.8 24 3.5 38.3
19:00 1015 29.97 844 24.92 25.4 77.6 23 2.9 37.3
19:05 1015 29.97 844 24.92 25.1 77.1 24 3.2 37.7
19:10 1015 29.97 844 24.92 25 76.9 23 2.6 36.7
19:15 1015 29.97 844 24.92 24.8 76.7 23 2.3 36.2
19:20 1015 29.97 844 24.92 24.8 76.7 23 2.8 37
19:25 1015 29.97 844 24.92 24.9 76.8 24 2.9 37.3
19:30 1015 29.97 844 24.92 24.8 76.7 23 2.7 36.9
19:35 1015 29.97 844 24.92 24.8 76.6 23 2.4 36.3
19:40 1015 29.97 844 24.92 24.7 76.5 23 2.6 36.6
19:45 1015 29.97 844 24.92 24.7 76.5 23 2.5 36.4
19:50 1015 29.97 844 24.92 24.7 76.4 23 2.4 36.4
19:55 1015 29.97 845 24.95 24.6 76.4 24 2.8 37
20:00 1015 29.97 845 24.95 24.4 76 32 6.8 44.2
20:05 1016 30 845 24.95 23.1 73.6 37 7.8 46
20:10 1016 30 845 24.95 22.2 72 38 7.4 45.4
20:15 1016 30 845 24.95 21.9 71.4 38 7.3 45.1
20:20 1016 30 845 24.95 21.7 71.1 40 7.9 46.2
20:25 1016 30 845 24.95 21.5 70.6 40 7.6 45.7
20:30 1016 30 845 24.95 21.2 70.1 42 7.9 46.3
20:35 1016 30 845 24.95 20.8 69.4 45 8.4 47.1
20:40 1016 30 845 24.95 20.4 68.7 43 7.6 45.7
20:45 1016 30 845 24.95 20.3 68.6 39 6 42.7
20:50 1016 30 845 24.95 20.5 68.8 41 7 44.6
20:55 1016 30 845 24.95 20.3 68.5 42 7 44.6
21:00 1016 30 845 24.95 20 68 42 6.9 44.5
21:05 1016 30 845 24.95 19.9 67.8 43 6.9 44.5
21:10 1016 30 846 24.98 19.6 67.3 43 6.9 44.5
21:15 1017 30.03 846 24.98 19.5 67 43 6.8 44.2
21:20 1017 30.03 846 24.98 19.3 66.8 44 6.8 44.2
21:25 1017 30.03 846 24.98 19.2 66.5 44 6.7 44.1
21:30 1017 30.03 846 24.98 18.9 66 44 6.6 43.8
21:35 1017 30.03 846 24.98 18.6 65.6 46 7 44.7
21:40 1017 30.03 846 24.98 18.2 64.8 48 7.1 44.7
21:45 1017 30.03 846 24.98 18 64.4 52 8 46.4
21:50 1017 30.03 846 24.98 17.9 64.2 55 8.8 47.8
21:55 1017 30.03 846 24.98 17.6 63.8 55 8.5 47.3
22:00 1017 30.03 846 24.98 17.5 63.4 53 8 46.4
22:05 1017 30.03 846 24.98 17.4 63.2 53 7.7 45.8
22:10 1017 30.03 846 24.98 17 62.6 54 7.7 45.8
22:15 1017 30.03 846 24.98 16.7 62 55 7.6 45.6
22:20 1017 30.03 846 24.98 16.7 62 53 7.2 44.9
22:25 1017 30.03 846 24.98 16.7 62 53 7.2 45
22:30 1017 30.03 847 25.01 16.4 61.6 54 7.3 45.1
22:35 1017 30.03 847 25.01 16.2 61.2 53 6.8 44.2
22:40 1017 30.03 847 25.01 16.3 61.3 54 7.1 44.8
22:45 1017 30.03 847 25.01 16 60.8 55 7 44.5
22:50 1017 30.03 847 25.01 15.8 60.4 55 6.9 44.4
22:55 1018 30.06 847 25.01 15.6 60.1 56 6.9 44.4
23:00 1018 30.06 847 25.01 15.4 59.7 57 6.9 44.5
23:05 1018 30.06 847 25.01 15.1 59.1 58 6.8 44.3
23:10 1018 30.06 847 25.01 14.9 58.8 58 6.7 44.1
23:15 1018 30.06 847 25.01 14.8 58.6 58 6.7 44
23:20 1018 30.06 847 25.01 14.5 58.2 58 6.4 43.5
23:25 1018 30.06 847 25.01 14.4 57.9 57 6 42.8
23:30 1018 30.06 847 25.01 14.5 58 57 6.1 42.9
23:35 1018 30.06 847 25.01 14.5 58.2 56 5.9 42.6
23:40 1018 30.06 847 25.01 14.5 58.1 58 6.4 43.5
23:45 1018 30.06 847 25.01 14.1 57.4 56 5.6 42
23:50 1018 30.06 847 25.01 14.4 58 50 4.3 39.8
23:55 1018 30.06 847 25.01 14.8 58.6 52 5 41
24:00 1018 30.06 847 25.01 14.5 58.1 54 5.3 41.5